[[{"header":{"parameterUnit":"m.s-1","parameterCategory":1,"la1":30.2991,"la2":30.254,"lo1":-89.0895,"lo2":-89.0444,"dy":0.0017,"dx":0.0017,"nx":28,"ny":28,"refTime":"2024-07-16T21:00:00:Z","depth":0,"parameterNumber":2,"parameterNumberName":"U-component_of_WINDS"},"data":[0,0,0,0,0,0,0,0,0,0,0,0,0,0,0,0,0,0,0,0,0,0,0,0,0,0,0,0,0,0,0,0,0,0,0,0,0,0,0,0,0,0,0,0,0,0,0,0,0,0,0,0,0,0,0,0,0,0,2.8955,2.8956,0,2.9018,2.9019,2.902,2.9019,2.9018,2.9017,2.9016,2.9083,2.9086,2.9088,0,0,0,0,0,0,0,0,0,0,0,0,0,2.8836,2.8838,2.8955,2.8956,2.8957,2.9018,2.9019,2.902,2.9019,2.9018,2.9017,2.9016,2.9082,2.9085,2.9088,0,0,0,0,0,0,0,0,0,0,0,0,0,2.8892,2.8838,2.8955,2.8963,2.8965,2.9018,2.9019,2.902,2.9019,2.9018,2.9017,2.9015,2.9081,2.9085,2.9089,2.9138,0,0,2.91,2.9102,0,0,0,0,0,0,0,0,2.8889,2.8896,2.8961,2.8963,2.8965,2.9009,2.9001,2.906,2.902,2.8999,2.9016,2.9015,2.906,2.9065,2.908,2.9141,2.9144,2.9101,2.9103,2.9105,2.9106,0,0,0,0,0,0,0,2.8885,2.8894,2.898,2.8962,2.8964,2.8965,2.8971,2.9012,2.9036,2.9,2.9,2.9008,2.906,2.9076,2.9081,2.9145,2.9101,2.9104,2.9106,2.9108,2.9249,2.9251,0,0,0,0,0,0,2.8879,2.889,2.8978,2.8982,2.8923,2.8968,2.8975,2.8996,2.9035,2.904,2.9009,2.9008,2.907,2.9077,2.9084,2.9144,2.9105,2.9108,2.9111,2.9248,2.925,2.9251,0,0,0,0,0,0,2.8876,2.8887,2.8975,2.8936,2.8947,2.8971,2.8995,2.8998,2.9014,2.9041,2.9046,2.9021,2.9069,2.9078,2.9124,2.9146,2.911,2.9114,2.9246,2.9248,2.9251,2.9264,0,0,0,0,0,0,2.8873,2.8886,2.8904,2.8937,2.895,2.9014,2.8996,2.9,2.902,2.9019,2.9054,2.9058,2.9069,2.9118,2.9128,2.9151,2.9117,2.9244,2.9247,2.925,2.9262,2.9267,2.9271,0,0,0,0,0,2.8869,2.8906,2.8905,2.8916,2.8973,2.9016,2.9023,2.9034,2.9022,2.9041,2.9059,2.9057,2.9142,2.9123,2.9134,2.9158,2.9243,2.9246,2.925,2.926,2.9266,2.927,0,0,0,0,0,0,2.8876,2.891,2.891,2.8959,2.8984,2.9015,2.904,2.904,2.907,2.9068,2.9081,2.9089,2.9135,2.9151,2.9129,2.9208,2.9191,2.9197,2.9195,2.9201,2.9205,2.92,2.912,0,0,0,0,0,2.8883,2.8914,2.8943,2.8983,2.8996,2.9016,2.9035,2.9041,2.9068,2.9079,2.91,2.9127,2.916,2.9181,2.9213,2.9264,2.9272,2.9286,2.9291,2.9294,2.9299,2.9327,2.9334,2.9262,2.9262,2.9262,0,0,2.8899,2.8921,2.894,2.8985,2.9006,2.9038,2.9025,2.906,2.9084,2.9085,2.9129,2.9146,2.9177,2.9225,2.9248,2.924,2.932,2.9298,2.9301,2.9304,2.9331,2.9338,2.9344,2.9264,2.9264,2.9263,0,0,2.8944,2.8964,2.9,2.902,2.9051,2.9064,2.9073,2.9104,2.9115,2.9159,2.916,2.919,2.9246,2.9268,2.9287,2.934,2.934,2.935,2.9373,2.94,2.9406,2.9411,2.943,2.9437,2.9355,2.9355,2.9355,0,2.8959,2.9008,2.9018,2.9053,2.9073,2.9074,2.9111,2.9131,2.9171,2.9185,2.9176,2.9246,2.9267,2.9321,2.9334,2.9349,2.936,2.9346,2.9404,2.9409,2.9414,2.9432,2.944,2.9356,2.9356,2.9355,2.9355,0,2.9025,2.9059,2.9084,2.9122,2.9145,2.9181,2.9197,2.9219,2.9223,2.9237,2.9283,2.9308,2.9345,2.9358,2.9363,2.9413,2.9407,2.9401,2.9385,2.9422,2.9439,2.9446,2.9357,2.9357,2.9356,2.9356,0,0,2.9077,2.912,2.9129,2.9146,2.918,2.9207,2.9243,2.9278,2.9297,2.9324,2.9355,2.9403,2.9397,2.9418,2.9425,2.945,2.949,2.944,2.9441,2.9449,2.9547,2.9551,2.9559,2.949,2.9491,2.9492,2.9544,0,2.9125,2.9188,2.9199,2.9255,2.9286,2.9288,2.9319,2.9344,2.9358,2.9387,2.9402,2.9436,2.9426,2.9438,2.9462,2.948,2.951,2.9476,2.9519,2.952,2.9511,2.9568,2.9573,2.962,2.9551,2.9552,2.9553,0,2.919,2.9219,2.9277,2.9307,2.9321,2.9349,2.9382,2.941,2.9438,2.9446,2.947,2.9474,2.9512,2.9494,2.9547,2.9524,2.9542,2.9553,2.9555,2.956,2.9539,2.9574,2.9636,2.9643,2.9564,2.9563,2.9562,0,2.9222,2.9275,2.9317,2.9332,2.9368,2.9387,2.9404,2.943,2.9451,2.948,2.9494,2.9527,2.9546,2.9572,2.9586,2.9571,2.9637,2.962,2.9646,2.9645,2.966,2.9659,2.9725,2.9671,2.9671,2.9671,2.9671,0,2.9275,2.9311,2.9332,2.9358,2.9398,2.941,2.945,2.9465,2.9489,2.9518,2.9522,2.955,2.9566,2.9596,2.9607,2.9649,2.9657,2.9666,2.9668,2.9665,2.9664,2.9677,2.9674,2.9673,2.9673,2.9672,2.9672,0,2.9318,2.9333,2.9379,2.9409,2.9417,2.9446,2.9472,2.9497,2.9511,2.9548,2.9557,2.9579,2.9614,2.9631,2.9675,2.9682,2.973,2.973,2.972,2.9721,2.9745,2.9743,2.9823,2.9834,2.9773,2.9773,2.9774,0,2.9351,2.9378,2.9411,2.943,2.9447,2.9478,2.9499,2.9512,2.9534,2.9568,2.9589,2.9624,2.9653,2.971,2.973,2.9764,2.9765,2.9791,2.977,2.9766,2.9766,2.9764,2.9766,2.9795,2.9795,2.9796,2.9796,0,2.9408,2.9414,2.9443,2.9476,2.95,2.9526,2.9552,2.9568,2.9585,2.9609,2.9645,2.9667,2.9712,2.9747,2.9782,2.9799,2.9801,2.9802,2.981,2.9807,2.98,2.9804,2.973,2.98,2.98,2.98,2.9799,2.9799,2.9447,2.9471,2.9498,2.953,2.9551,2.9575,2.96,2.9617,2.9646,2.9683,2.9689,2.9728,2.9755,2.9802,2.982,2.9851,2.9845,2.9856,2.9859,2.9861,2.9863,2.9795,2.9857,2.9857,2.9857,2.9857,2.9857,0,2.9504,2.9521,2.9551,2.9586,2.9612,2.961,2.9639,2.966,2.9694,2.9719,2.9747,2.9789,2.9823,2.9845,2.988,2.99,2.9902,2.9909,2.9907,2.9911,2.9866,2.9856,2.9907,2.9907,2.9907,2.9907,2.9907,2.9907,2.9536,2.9577,2.9587,2.9638,2.9655,2.9692,2.9709,2.9731,2.9751,2.9796,2.9824,2.9839,2.9863,2.9899,2.9931,2.9937,2.9949,2.9957,2.9962,2.992,2.9914,2.991,2.99,2.9959,2.9959,3.0005,3.0005,3.0005]},{"header":{"parameterUnit":"m.s-1","parameterCategory":1,"la1":30.2991,"la2":30.254,"lo1":-89.0895,"lo2":-89.0444,"dy":0.0017,"dx":0.0017,"nx":28,"ny":28,"refTime":"2024-07-16T21:00:00:Z","depth":0,"parameterNumber":3,"parameterNumberName":"V-component_of_WINDS"},"data":[0,0,0,0,0,0,0,0,0,0,0,0,0,0,0,0,0,0,0,0,0,0,0,0,0,0,0,0,0,0,0,0,0,0,0,0,0,0,0,0,0,0,0,0,0,0,0,0,0,0,0,0,0,0,0,0,0,0,0.474,0.4739,0,0.4688,0.4687,0.4686,0.4651,0.465,0.465,0.465,0.4594,0.4593,0.4592,0,0,0,0,0,0,0,0,0,0,0,0,0,0.4806,0.4805,0.474,0.4739,0.4739,0.4688,0.4687,0.4686,0.4651,0.465,0.465,0.465,0.4595,0.4593,0.4592,0,0,0,0,0,0,0,0,0,0,0,0,0,0.4768,0.4804,0.474,0.4715,0.4712,0.4688,0.4687,0.4686,0.4651,0.465,0.465,0.465,0.4595,0.4593,0.4592,0.4588,0,0,0.4586,0.4585,0,0,0,0,0,0,0,0,0.477,0.4765,0.4719,0.4716,0.4713,0.4675,0.469,0.4653,0.4651,0.4674,0.465,0.4649,0.4621,0.4617,0.4608,0.4585,0.4583,0.4586,0.4585,0.4584,0.4583,0,0,0,0,0,0,0,0.4773,0.4767,0.4719,0.4718,0.4715,0.4705,0.4699,0.4683,0.465,0.4672,0.4669,0.4664,0.462,0.461,0.4607,0.4582,0.4586,0.4584,0.4583,0.4582,0.4551,0.4551,0,0,0,0,0,0,0.478,0.477,0.4721,0.4718,0.4741,0.4704,0.4698,0.4688,0.4651,0.4645,0.4664,0.4662,0.4614,0.4609,0.4605,0.4596,0.4584,0.4582,0.4581,0.455,0.4551,0.4551,0,0,0,0,0,0,0.4781,0.4776,0.4723,0.4743,0.4735,0.4703,0.4693,0.4687,0.4678,0.4645,0.4638,0.466,0.4613,0.4607,0.4592,0.4594,0.4581,0.458,0.455,0.4551,0.4551,0.4581,0,0,0,0,0,0,0.4783,0.4776,0.4775,0.4743,0.4735,0.4712,0.4693,0.4686,0.4675,0.4672,0.464,0.4634,0.4612,0.4595,0.459,0.4591,0.4578,0.455,0.455,0.4551,0.458,0.4582,0.4585,0,0,0,0,0,0.4786,0.4786,0.4776,0.477,0.4733,0.4712,0.4707,0.4683,0.4675,0.4673,0.4652,0.4635,0.4595,0.4594,0.4588,0.4589,0.455,0.455,0.4551,0.4578,0.4582,0.4584,0,0,0,0,0,0,0.4819,0.4781,0.4769,0.4759,0.4739,0.4706,0.4703,0.4688,0.4669,0.4667,0.4637,0.463,0.4618,0.4601,0.4601,0.4582,0.457,0.4569,0.4593,0.4596,0.4598,0.4602,0.4577,0,0,0,0,0,0.4825,0.4812,0.478,0.4774,0.4765,0.4736,0.4726,0.4709,0.4687,0.4678,0.4656,0.4634,0.4616,0.4605,0.4587,0.4577,0.4569,0.4574,0.4577,0.4579,0.4579,0.4571,0.4572,0.4553,0.4553,0.4553,0,0,0.4838,0.4815,0.4809,0.478,0.4763,0.4749,0.4729,0.4716,0.4705,0.4676,0.466,0.4642,0.4616,0.4603,0.4596,0.4589,0.4582,0.458,0.4582,0.458,0.4571,0.4573,0.4575,0.4554,0.4554,0.4553,0,0,0.4853,0.4836,0.4829,0.4811,0.4785,0.4766,0.4764,0.4733,0.472,0.4704,0.4681,0.4667,0.4638,0.462,0.4607,0.4614,0.4597,0.4609,0.4622,0.4614,0.4616,0.4617,0.4618,0.4619,0.4609,0.4609,0.4609,0,0.4872,0.4852,0.4827,0.4814,0.4801,0.4775,0.4766,0.475,0.4719,0.4711,0.4703,0.4665,0.4645,0.4627,0.4628,0.4619,0.4615,0.4612,0.4618,0.4618,0.4619,0.462,0.4621,0.461,0.461,0.461,0.461,0,0.4875,0.4861,0.4858,0.4829,0.4816,0.4806,0.4778,0.4767,0.4751,0.4732,0.4715,0.469,0.4666,0.466,0.4645,0.4639,0.4635,0.4623,0.4611,0.4623,0.4623,0.4623,0.4613,0.4612,0.4612,0.4611,0,0,0.491,0.4867,0.4866,0.4852,0.4821,0.4809,0.4797,0.4773,0.4764,0.4744,0.4731,0.4707,0.4695,0.468,0.4662,0.4655,0.466,0.4643,0.4642,0.4646,0.4651,0.466,0.466,0.4649,0.4649,0.4649,0.4653,0,0.492,0.4898,0.4875,0.486,0.4846,0.4819,0.4808,0.4787,0.4769,0.4753,0.4732,0.4715,0.4701,0.4692,0.4684,0.4662,0.4661,0.4661,0.4636,0.4636,0.4643,0.4661,0.467,0.4675,0.4653,0.4653,0.4653,0,0.4929,0.491,0.4894,0.4863,0.4856,0.4847,0.4823,0.4808,0.4783,0.477,0.4753,0.4733,0.4718,0.4707,0.4684,0.4685,0.4673,0.466,0.466,0.4656,0.4645,0.4656,0.4676,0.4676,0.4653,0.4653,0.4653,0,0.4955,0.4925,0.4911,0.49,0.4864,0.4857,0.4842,0.4816,0.4803,0.4782,0.4773,0.475,0.4737,0.4719,0.4693,0.4688,0.4672,0.466,0.466,0.466,0.4657,0.4658,0.4674,0.4651,0.4651,0.4651,0.4651,0,0.4969,0.4959,0.4922,0.4914,0.4902,0.4875,0.4864,0.4845,0.4823,0.4809,0.4785,0.4772,0.4739,0.4722,0.4702,0.4685,0.468,0.4668,0.4662,0.4669,0.4671,0.4661,0.466,0.4652,0.4651,0.4651,0.4651,0,0.4995,0.497,0.4953,0.492,0.4911,0.4904,0.4875,0.4865,0.4845,0.4828,0.4822,0.479,0.4769,0.4741,0.4711,0.4697,0.4682,0.4675,0.4691,0.4688,0.4689,0.4689,0.4699,0.4698,0.4677,0.4677,0.4677,0,0.5005,0.4998,0.4963,0.4953,0.4938,0.4921,0.4908,0.488,0.4867,0.4837,0.483,0.4807,0.4787,0.4754,0.4727,0.4704,0.4694,0.4699,0.4691,0.4698,0.4693,0.4693,0.4692,0.4701,0.4702,0.4702,0.4702,0,0.5025,0.5012,0.4995,0.4972,0.4957,0.4938,0.4917,0.491,0.4877,0.4863,0.4842,0.4826,0.4795,0.4772,0.4745,0.4727,0.4709,0.4705,0.4704,0.4711,0.472,0.4714,0.4696,0.4705,0.4705,0.4705,0.4705,0.4704,0.5042,0.5034,0.5008,0.4989,0.497,0.4952,0.494,0.4919,0.49,0.4873,0.4858,0.4836,0.4809,0.4771,0.4754,0.4735,0.4729,0.4727,0.4726,0.4726,0.4728,0.4724,0.473,0.473,0.473,0.473,0.473,0,0.5059,0.5042,0.5024,0.4996,0.498,0.4966,0.4942,0.4929,0.4911,0.4888,0.4869,0.4843,0.482,0.4791,0.4766,0.4757,0.4747,0.4751,0.4751,0.4747,0.4736,0.4739,0.4758,0.4758,0.4758,0.4758,0.4758,0.4758,0.5067,0.5051,0.5036,0.501,0.4992,0.4971,0.4958,0.494,0.4922,0.4894,0.4875,0.4857,0.4831,0.4804,0.4781,0.4773,0.4765,0.477,0.476,0.475,0.4748,0.4745,0.4748,0.4769,0.4769,0.4772,0.4772,0.4772]}]]